Location: Betz
(49.1556°N, 2.9558°E)
Time: 00:44:40
(UTC+00:00)

Meteor 1-24 Rocket - Pass Details

Date: 18 September 2019
Orbit: 791 x 926 km, 81.2° (Epoch: 21 October)

Event Time Altitude Azimuth Distance (km) Brightness Sun altitude
Rises 19:28:48 0° 352° (N) 3,438 7.3 -15.7°
Reaches altitude 10° 19:31:21 10° 359° (N) 2,519 6.5 -16.0°
Maximum altitude 19:36:48 43° 71° (ENE) 1,224 4.2 -16.9°
Enters shadow 19:39:27 27° 124° (ESE) 1,639 4.6 -17.3°
